{"data":{"norad_id":65373,"epoch":"2026-05-25T01:46:31.959264Z","epoch_age_seconds":62468,"freshness":"FRESH","line1":"1 65373U 25190Y   26145.07398101  .00020997  00000+0  63082-3 0  9996","line2":"2 65373  53.1588 173.1133 0001251  80.8449 279.2695 15.34400122 40935","mean_motion":15.34400122,"eccentricity":0.0001251,"inclination_deg":53.1588,"raan_deg":173.1133,"arg_perigee_deg":80.8449,"mean_anomaly_deg":279.2695,"bstar":0.00063082,"rev_number":4093,"period_min":93.847750619509,"perigee_km":461.84708852873,"apogee_km":463.55866666611,"semimajor_km":6840.8398775974,"source":"CELESTRAK","updated_at":"2026-05-25T13:38:20.769979Z"}}